Terminal Aerodrome Forecast
Issued by NWS Louisville, KY

Home | Current Version | Previous Version | Text Only | Print | Product List | Glossary On
Versions: 1 2 3 4 5 6 7 8 9 10 11 12 13 14 15 16 17 18 19
000
FTUS43 KLMK 271500 AAB
TAFLEX
TAF AMD
KLEX 271543Z 2716/2812 25015G21KT 4SM -TSRA BKN040CB
      TEMPO 2716/2717 2SM TSRA
     FM271700 25017G26KT P6SM VCTS BKN040CB
     FM280000 32008KT P6SM SCT050=

USA.gov is the U.S. government's official web portal to all federal, state and local government web resources and services.